Probability
0 0 0 0 0 0 0 0 0 0 0 0 0 0 0 0 0 0 0 0 0 0 0 0 0 0 0 0 0 0 0 0 0 0 0 0 3 19
0 0 0 0 0 0 0 0 0 0 0 0 0 0 0 0 0 0 0 0 0 0 0 0 0 0 0 0 0 0 0 0 0 0 0 0 0 0
0 0 0 0 0 0 0 0 0 0 0 0 0 0 0 0 0 0 0 0 0 0 0 0 0 0 0 0 0 0 0 0 0 0 0 0 0 0
0 0 0 0 0 0 0 0 0 0 0 0 0 0 0 0 0 0 0 0 0 0 0 0 0 0 0 0 0 0 0 0 0 0 0 0 0 0
0 0 0 0 0 0 0 0 0 0 0 0 0 0 0 0 0 0 0 0 0 0 0 0 0 0 0 0 0 0 0 0 0 0 0 0 0 0
0 0 0 0 0 0 0 0 0 0 0 0 0 0 0 0 0 0 0 0 0 0 0 0 0 0 0 0 0 0 0 0 0 0 0 0 0 0
0 0 0 0 0 0 0 0 0 0 0 0 0 0 0 0 0 0 0 0 0 0 0 0 0 0 0 0 0 0 0 0 0 0 0 0 0 0
0 0 0 0 0 0 0 0 0 0 0 0 0 0 0 0 0 0 0 0 0 0 0 0 0 0 0 0 0 0 0 0 0 0 0 0 0 0
0 0 0 0 0 0 0 0 0 0 0 0 0 0 0 0 0 0 0 0 0 0 0 0 0 0 0 0 0 0 0 0 0 0 0 0 0 0
0 0 0 0 0 0 0 0 0 0 0 0 0 0 0 0 0 0 0 0 0 0 0 0 0 0 0 0 0 0 0 0 0 0 0 0 0 0
0 0 0 0 0 0 0 0 0 0 0 0 0 0 0 0 0 0 0 0 0 0 0 0 0 0 0 0 0 0 0 0 0 0 0 0 0 0
0 0 0 0 0 0 0 0 0 0 0 0 0 0 0 0 0 0 0 0 0 0 0 0 0 0 0 0 0 0 0 0 0 0 0 0 0 0
0 0 0 0 0 0 0 0 0 0 0 0 0 0 0 0 0 0 0 0 0 0 0 0 0 0 0 0 0 0 0 0 0 0 0 0 0 0
0 0 0 0 0 0 0 0 0 0 0 0 0 0 0 0 0 0 0 0 0 0 0 0 0 0 0 0 0 0 0 0 0 0 0 0 0 0
0 0 0 0 0 0 0 0 0 0 0 0 0 0 0 0 0 0 0 0 0 0 0 0 0 0 0 0 0 0 0 0 0 0 0 0 0 0
0 0 0 0 0 0 0 0 0 0 0 0 0 0 0 0 0 0 0 0 0 0 0 0 0 0 0 0 0 0 0 0 0 0 0 0 0 0
0 0 0 0 0 0 0 0 0 0 0 0 0 0 0 0 0 0 0 0 0 0 0 0 0 0 0 0 0 0 0 0 0 0 0 0 0 0
0 0 0 0 0 0 0 0 0 0 0 0 0 0 0 0 0 0 0 0 0 0 0 0 0 0 0 0 0 0 0 0 0 0 0 0 0 0
0 0 0 0 0 0 0 0 0 0 0 0 0 0 0 0 0 0 0 0 0 0 0 0 0 0 0 0 0 0 0 0 0 0 0 0 0 0
0 0 0 0 0 0 0 0 0 0 0 0 0 0 0 0 0 0 0 0 0 0 0 0 0 0 0 0 0 0 0 0 0 0 0 0 0 0
0 0 0 0 0 0 0 0 0 0 0 0 0 0 0 0 0 0 0 0 0 0 0 0 0 0 0 0 0 0 0 0 0 0 0 0 0 0
0 0 0 0 0 0 0 0 0 0 0 0 0 0 0 0 0 0 0 0 0 0 0 0 0 0 0 0 0 0 0 0 0 0 0 0 0 0
0 0 0 0 0 0 0 0 0 0 0 0 0 0 0 0 0 0 0 0 0 0 0 0 0 0 0 0 0 0 0 0 0 0 0 0 0 0
Height
5723 5724 5726 5728 5730 5733 5737 5741 5745 5749 5754 5758 5762 5766 5771 5776 5781 5787 5793 5798 5804 5810 5816 5823 5828 5834 5839 5844 5849 5853 5857 5860 5863 5866 5869 5872 5874 5876
5710 5712 5714 5716 5718 5722 5725 5729 5733 5739 5744 5748 5752 5757 5762 5767 5773 5779 5784 5790 5796 5803 5809 5816 5822 5828 5833 5838 5843 5848 5852 5855 5859 5862 5865 5868 5870 5872
5696 5697 5700 5702 5705 5709 5713 5717 5722 5727 5733 5738 5742 5747 5752 5758 5764 5770 5776 5782 5788 5795 5802 5808 5815 5821 5827 5832 5837 5842 5846 5850 5854 5857 5860 5863 5866 5868
5681 5682 5685 5687 5691 5695 5699 5704 5709 5715 5722 5727 5732 5737 5742 5748 5755 5761 5767 5773 5780 5787 5794 5800 5807 5814 5820 5826 5831 5836 5841 5845 5849 5853 5856 5859 5861 5863
5666 5667 5669 5672 5676 5680 5685 5690 5696 5702 5709 5716 5721 5727 5733 5739 5745 5752 5758 5765 5771 5778 5785 5792 5799 5807 5813 5819 5825 5830 5835 5840 5844 5848 5851 5854 5857 5859
5651 5652 5653 5656 5660 5664 5670 5676 5682 5688 5696 5703 5710 5716 5722 5728 5735 5742 5749 5756 5763 5770 5777 5784 5792 5799 5806 5812 5818 5824 5829 5834 5839 5843 5846 5849 5852 5854
5635 5635 5637 5639 5643 5648 5654 5660 5667 5674 5681 5689 5697 5704 5711 5718 5725 5732 5739 5746 5754 5761 5769 5777 5784 5791 5798 5805 5811 5817 5823 5828 5833 5837 5841 5844 5847 5850
5619 5619 5620 5623 5627 5631 5637 5644 5651 5659 5667 5676 5684 5692 5699 5707 5714 5722 5730 5737 5745 5753 5760 5768 5776 5783 5790 5797 5804 5810 5816 5821 5827 5831 5835 5839 5842 5844
5603 5603 5604 5607 5610 5615 5621 5627 5635 5643 5652 5662 5671 5679 5686 5695 5703 5712 5720 5728 5736 5743 5751 5758 5767 5774 5782 5789 5796 5802 5809 5814 5820 5825 5829 5833 5836 5839
5588 5588 5589 5591 5595 5599 5605 5612 5619 5628 5638 5648 5658 5666 5673 5681 5691 5700 5708 5717 5725 5733 5741 5749 5757 5765 5773 5781 5788 5795 5801 5807 5813 5818 5822 5826 5830 5833
5574 5574 5575 5577 5580 5584 5590 5597 5605 5613 5622 5632 5641 5650 5659 5669 5679 5688 5697 5706 5714 5723 5731 5740 5748 5756 5764 5772 5779 5786 5793 5799 5805 5810 5815 5820 5823 5827
5562 5561 5562 5563 5566 5569 5576 5583 5591 5600 5608 5618 5627 5637 5647 5656 5667 5676 5686 5694 5703 5713 5722 5731 5739 5747 5756 5763 5770 5778 5785 5791 5797 5802 5808 5812 5816 5820
5550 5549 5549 5550 5553 5557 5563 5570 5578 5586 5594 5604 5614 5624 5634 5645 5655 5665 5674 5684 5693 5703 5713 5721 5730 5738 5747 5755 5762 5769 5776 5783 5789 5794 5800 5804 5809 5813
5540 5538 5538 5539 5542 5547 5553 5559 5566 5574 5583 5593 5603 5613 5624 5634 5644 5653 5663 5673 5683 5692 5702 5711 5720 5729 5738 5745 5753 5760 5767 5774 5780 5786 5792 5797 5801 5805
5531 5530 5530 5531 5534 5538 5544 5550 5557 5565 5574 5583 5594 5604 5613 5623 5633 5643 5653 5663 5673 5682 5692 5702 5711 5720 5728 5737 5744 5751 5759 5765 5772 5778 5784 5789 5793 5797
5525 5524 5524 5526 5528 5532 5538 5544 5550 5558 5566 5575 5585 5595 5604 5614 5624 5634 5644 5654 5664 5674 5683 5693 5702 5711 5720 5728 5736 5743 5750 5757 5764 5770 5775 5781 5785 5789
5521 5521 5521 5523 5525 5528 5532 5538 5544 5552 5560 5568 5578 5587 5597 5606 5616 5626 5636 5645 5656 5665 5675 5684 5693 5702 5711 5719 5727 5735 5742 5749 5756 5762 5767 5772 5777 5781
5521 5520 5520 5521 5523 5526 5530 5535 5541 5548 5556 5564 5572 5581 5591 5600 5609 5618 5629 5638 5647 5657 5666 5676 5685 5694 5703 5711 5719 5727 5734 5740 5747 5753 5759 5764 5769 5773
5522 5521 5521 5522 5523 5526 5529 5533 5539 5546 5553 5560 5568 5577 5586 5594 5603 5612 5621 5631 5640 5649 5658 5667 5676 5686 5695 5703 5711 5718 5725 5732 5738 5744 5750 5756 5760 5765
5523 5522 5522 5523 5524 5526 5529 5533 5538 5544 5551 5558 5565 5573 5581 5589 5598 5606 5615 5624 5633 5642 5651 5660 5669 5677 5686 5695 5702 5709 5716 5723 5729 5736 5741 5747 5752 5756
5525 5524 5524 5524 5525 5527 5530 5534 5538 5544 5550 5556 5563 5570 5577 5585 5593 5601 5609 5618 5627 5635 5644 5653 5661 5669 5677 5685 5694 5700 5707 5714 5721 5727 5733 5738 5743 5747
5526 5525 5525 5525 5527 5529 5531 5535 5539 5544 5549 5555 5561 5567 5574 5581 5588 5596 5604 5613 5621 5629 5637 5646 5653 5661 5670 5678 5685 5693 5699 5706 5713 5719 5725 5730 5734 5739
5527 5526 5526 5527 5528 5530 5533 5536 5540 5544 5548 5554 5559 5565 5572 5578 5585 5592 5599 5607 5615 5623 5631 5639 5647 5655 5662 5670 5677 5685 5692 5698 5704 5710 5716 5721 5726 5731
Wind_Speed
38 38 38 39 39 39 39 39 39 39 38 38 37 38 39 39 38 39 39 40 41 41 40 39 37 36 33 32 30 28 25 23 22 20 19 18 17 17
40 41 41 41 40 40 40 41 41 41 39 39 39 39 41 41 41 40 40 41 41 42 41 40 39 37 35 33 31 29 26 24 22 21 20 19 17 16
42 43 43 43 43 43 42 43 44 43 42 41 41 41 41 42 42 41 41 43 43 42 42 41 40 38 36 34 32 30 27 25 23 21 19 18 17 16
42 43 44 45 45 45 45 44 45 46 44 44 43 43 43 44 43 42 42 43 43 42 42 43 41 40 38 36 34 31 29 26 24 21 20 19 17 16
42 43 44 45 46 46 47 47 47 48 47 47 46 45 45 45 45 43 44 44 44 44 44 44 43 41 40 38 35 33 30 28 26 23 21 20 18 16
42 43 44 46 47 47 48 48 49 49 49 49 50 48 48 47 47 45 45 46 45 45 45 45 44 43 41 40 38 35 32 30 27 25 23 21 19 18
41 42 44 45 47 48 48 49 51 51 51 51 51 51 50 49 49 47 46 47 47 47 46 46 45 44 43 42 40 37 35 32 29 27 25 23 21 19
41 41 43 44 46 48 49 50 52 52 53 53 53 52 53 51 50 50 49 48 47 48 48 48 47 46 45 43 42 39 37 34 32 29 27 25 23 21
39 39 40 42 44 46 48 50 52 52 53 55 56 55 55 54 52 52 51 50 49 49 49 49 48 48 47 45 43 41 39 36 34 32 30 27 25 23
36 36 37 39 41 44 46 49 51 53 53 55 57 57 57 56 56 53 52 53 53 52 51 50 49 48 47 46 45 43 41 39 36 34 32 30 27 25
33 34 35 36 39 42 45 47 50 52 53 55 58 59 59 58 57 56 54 54 55 53 52 50 49 48 48 48 47 44 43 40 38 36 34 32 30 28
31 32 33 34 37 40 42 44 47 50 53 54 57 59 59 59 58 57 57 54 54 54 53 51 49 48 47 46 46 45 43 42 40 38 36 35 32 30
28 29 30 31 33 36 39 41 44 48 51 54 55 58 58 58 58 58 59 57 54 53 53 50 49 49 47 46 46 45 43 42 41 39 38 36 34 32
25 25 25 26 28 31 34 37 42 45 48 52 54 55 56 56 56 57 58 59 56 53 52 51 50 50 49 48 47 46 44 42 40 39 38 37 35 34
20 20 20 21 23 27 31 34 37 41 44 48 51 52 53 53 53 55 56 56 56 54 51 49 51 50 49 49 47 46 45 43 41 39 38 37 36 34
14 13 14 16 19 23 27 31 33 37 41 44 47 49 50 50 51 52 52 52 53 53 52 50 50 49 48 47 47 45 45 43 42 40 38 37 36 35
9 9 10 12 15 18 22 26 30 33 36 40 43 46 46 46 47 49 49 48 50 51 52 51 49 48 47 47 47 46 44 42 41 40 39 38 36 35
7 4 6 8 11 15 19 22 27 29 32 35 39 41 42 41 43 45 46 46 46 48 49 50 49 49 47 47 47 46 44 42 41 40 39 37 36 35
5 2 3 6 9 13 16 21 24 27 29 33 35 38 39 39 40 42 44 44 45 46 47 47 47 48 46 45 45 45 44 43 41 41 40 38 37 36
5 1 2 6 8 11 15 19 23 25 27 29 32 35 36 37 38 39 41 43 44 45 45 44 46 46 45 45 45 45 45 44 42 41 40 39 38 36
4 1 2 5 8 11 14 18 21 23 24 26 29 31 33 34 36 38 39 41 42 43 43 43 45 46 46 46 46 45 45 45 44 42 40 39 38 37
4 1 2 4 7 11 13 16 18 21 22 24 26 27 30 32 34 35 37 40 41 42 44 43 43 44 45 45 44 43 43 42 41 42 41 39 38 37
5 1 3 5 7 9 12 14 17 19 21 23 24 26 28 30 32 33 36 39 39 40 42 43 43 42 43 43 43 42 41 41 40 40 40 39 38 37
Wind_Direction
262 259 257 254 252 249 246 243 240 236 234 233 232 229 227 226 225 224 223 221 219 218 217 217 216 216 216 217 218 218 220 221 223 225 227 231 235 239
263 259 256 253 251 248 245 242 240 236 233 232 230 228 225 224 223 222 222 220 218 216 215 215 215 216 216 216 217 217 218 219 221 224 227 230 235 240
265 261 257 253 249 247 244 241 239 236 232 230 229 227 223 222 222 220 220 218 215 214 214 214 214 215 214 214 215 215 216 217 219 222 225 229 234 240
266 262 258 253 249 246 243 240 237 235 232 228 228 226 224 221 220 218 217 215 213 213 214 213 213 214 214 214 214 215 215 217 218 221 226 230 235 240
266 262 258 254 249 246 242 239 237 234 231 227 225 225 224 222 219 217 215 214 214 214 214 214 213 213 214 214 214 214 215 217 219 222 227 230 234 238
267 263 258 254 249 246 242 239 236 233 230 227 224 223 223 221 219 217 216 215 215 215 215 214 214 214 215 215 215 215 216 218 221 224 226 230 234 238
269 263 258 253 249 245 242 239 235 232 229 226 224 223 222 222 220 218 217 215 215 215 215 215 215 215 215 216 216 217 218 220 222 224 227 231 234 238
270 265 259 254 249 245 242 239 235 232 228 225 222 222 221 222 220 219 218 216 216 215 216 216 217 216 216 217 217 218 219 221 224 226 228 231 234 238
272 266 261 255 249 244 241 238 234 231 228 224 222 220 220 220 219 218 218 218 217 217 216 217 217 217 218 218 218 219 220 222 225 227 229 231 234 238
273 266 261 255 249 244 240 236 233 230 227 224 221 220 220 219 219 217 218 218 217 217 217 217 216 218 218 219 220 221 222 223 225 228 230 232 235 239
273 267 261 256 250 244 239 234 230 228 226 224 221 220 220 219 219 219 217 217 216 217 217 216 216 217 218 220 220 221 223 225 226 228 230 233 236 240
276 269 262 256 249 243 237 233 228 225 224 223 222 220 220 219 219 219 217 215 215 215 215 216 216 216 218 219 220 221 223 225 226 228 230 233 237 240
278 270 262 255 246 239 234 230 225 223 221 221 221 219 220 220 219 219 219 217 215 213 213 214 216 217 218 219 220 221 222 225 227 228 231 234 237 241
281 271 262 253 241 234 228 224 222 221 220 219 220 220 219 219 219 219 219 219 217 216 214 215 216 216 217 219 221 221 222 224 226 229 231 234 237 240
284 270 259 247 236 228 222 221 220 219 219 218 218 218 217 218 218 219 219 219 218 219 218 216 216 216 217 219 221 222 223 224 227 229 232 234 237 240
289 268 253 240 230 224 219 218 218 218 217 216 215 215 216 217 217 218 219 219 217 218 218 216 216 217 217 219 221 222 223 225 227 230 232 235 237 240
302 271 245 234 225 219 216 213 211 211 211 211 210 212 213 215 215 216 216 217 217 216 215 215 215 216 217 219 221 222 224 225 227 229 232 234 237 239
325 287 236 219 214 209 207 204 202 203 206 206 207 209 210 212 213 213 212 214 214 215 215 215 216 217 218 219 221 223 225 227 228 228 230 233 236 238
348 318 208 204 207 204 202 199 199 200 202 203 204 205 209 209 209 210 208 209 211 211 212 213 215 216 216 217 219 222 223 224 226 227 229 232 235 237
351 338 201 200 202 199 197 194 195 195 197 199 202 205 207 208 207 207 206 207 209 209 209 211 212 213 214 215 217 218 221 223 224 227 229 232 234 236
347 325 204 199 198 196 193 190 191 193 197 199 200 202 205 206 206 206 206 206 207 208 208 210 211 213 211 214 217 219 220 222 224 228 230 231 233 235
351 324 190 183 187 190 190 189 191 195 198 198 199 200 202 203 203 205 206 205 205 207 207 208 210 213 213 215 218 219 221 222 224 227 228 231 234 236
352 309 189 181 184 185 186 187 189 193 197 197 198 200 201 202 202 204 206 205 204 205 207 210 210 213 214 216 218 219 220 222 224 227 229 232 235 238